Weather History for Clinton, OK

Change the Weather History Date:

Thursday, January 31, 2013

  Actual Average (KCSM) Record (KCSM)
Temperature  
Mean Temperature 42 °F -  
Max Temperature 60 °F 48 °F 68 °F (2006)
Min Temperature 23 °F 28 °F 17 °F (2008)
Degree Days  
Heating Degree Days 24    
Moisture  
Dew Point 20 °F    
Average Humidity 54    
Maximum Humidity 86    
Minimum Humidity 16    
Precipitation  
Precipitation 0.00 in - - ()
Sea Level Pressure  
Sea Level Pressure 30.14 in    
Wind  
Wind Speed 6 mph (NNE)    
Max Wind Speed 26 mph    
Max Gust Speed 29 mph    
Visibility 10 miles    
Events      
Averages and records for this station are not official NWS values.
T = Trace of Precipitation, MM = Missing Value Source: NWS Daily Summary

Daily Weather History Graph

Daily Weather History Graph

Search for Another Location

Airport:

Trip Planner

Search our weather history database for the weather conditions in past years. The results will help you decide how hot, cold, wet, or windy it might be!

Date:

Astronomy

Jan. 31, 2013 Rise Set
Actual Time 7:36 AM CST 6:02 PM CST
Civil Twilight 7:09 AM CST 6:29 PM CST
Nautical Twilight 6:38 AM CST 7:00 PM CST
Astronomical Twilight 6:08 AM CST 7:30 PM CST
Moon 10:53 PM CST (1/31) 9:48 AM CST (1/31)
Length of Visible Light 11h 20m
Length of Day
10h 26m
Waning Gibbous, 79% of the Moon is Illuminated
Jan 31
Waning Gibbous
Feb 3
Last Quarter
Feb 10
New
Feb 17
First Quarter
Feb 25
Full

Hourly Weather History & Observations

Time (CST) Temp. Windchill Dew Point Humidity Pressure Visibility Wind Dir Wind Speed Gust Speed Precip Events Conditions
12:15 AM 33.8 °F - 14.0 °F 44% 30.05 in 10.0 mi Calm Calm - N/A   Clear
12:35 AM 33.8 °F 29.6 °F 14.0 °F 44% 30.04 in 10.0 mi West 4.6 mph - N/A   Clear
12:55 AM 33.8 °F - 14.0 °F 44% 30.04 in 10.0 mi Calm Calm - N/A   Clear
1:15 AM 33.8 °F - 14.0 °F 44% 30.04 in 10.0 mi Calm Calm - N/A   Clear
1:35 AM 33.8 °F - 14.0 °F 44% 30.03 in 10.0 mi Calm Calm - N/A   Clear
1:55 AM 32.0 °F - 17.6 °F 55% 30.03 in 10.0 mi Calm Calm - N/A   Clear
2:15 AM 32.0 °F - 17.6 °F 55% 30.03 in 10.0 mi Calm Calm - N/A   Clear
2:35 AM 32.0 °F 28.7 °F 17.6 °F 55% 30.03 in 10.0 mi NE 3.5 mph - N/A   Clear
2:55 AM 32.0 °F - 17.6 °F 55% 30.04 in 10.0 mi Calm Calm - N/A   Clear
3:15 AM 30.2 °F - 17.6 °F 60% 30.02 in 10.0 mi Calm Calm - N/A   Clear
3:35 AM 32.0 °F - 17.6 °F 55% 30.02 in 10.0 mi Calm Calm - N/A   Clear
3:55 AM 28.4 °F - 21.2 °F 74% 30.02 in 10.0 mi Calm Calm - N/A   Clear
4:15 AM 28.4 °F - 19.4 °F 69% 30.02 in 10.0 mi Calm Calm - N/A   Clear
4:35 AM 30.2 °F - 19.4 °F 64% 30.01 in 10.0 mi Calm Calm - N/A   Clear
4:55 AM 26.6 °F - 19.4 °F 74% 30.02 in 10.0 mi Calm Calm - N/A   Clear
5:15 AM 24.8 °F - 19.4 °F 80% 30.01 in 10.0 mi Calm Calm - N/A   Clear
5:35 AM 26.6 °F - 21.2 °F 80% 30.02 in 10.0 mi Calm Calm - N/A   Clear
5:55 AM 26.6 °F 20.0 °F 19.4 °F 74% 30.02 in 10.0 mi South 5.8 mph - N/A   Clear
6:15 AM 26.6 °F 18.2 °F 19.4 °F 74% 30.02 in 10.0 mi South 8.1 mph - N/A   Clear
6:35 AM 28.4 °F 21.2 °F 19.4 °F 69% 30.01 in 10.0 mi SSE 6.9 mph - N/A   Clear
6:55 AM 28.4 °F 23.3 °F 19.4 °F 69% 30.02 in 10.0 mi SSE 4.6 mph - N/A   Clear
7:15 AM 28.4 °F 24.6 °F 19.4 °F 69% 30.02 in 10.0 mi ESE 3.5 mph - N/A   Clear
7:35 AM 26.6 °F 21.2 °F 19.4 °F 74% 30.03 in 10.0 mi North 4.6 mph - N/A   Clear
7:55 AM 23.0 °F 13.9 °F 19.4 °F 86% 30.05 in 10.0 mi North 8.1 mph - N/A   Clear
8:15 AM 26.6 °F 20.0 °F 19.4 °F 74% 30.05 in 10.0 mi North 5.8 mph - N/A   Clear
8:35 AM 26.6 °F 21.2 °F 21.2 °F 80% 30.05 in 10.0 mi North 4.6 mph - N/A   Clear
8:55 AM 28.4 °F 23.3 °F 21.2 °F 74% 30.07 in 10.0 mi NNW 4.6 mph - N/A   Clear
9:15 AM 30.2 °F - 21.2 °F 69% 30.08 in 10.0 mi Calm Calm - N/A   Clear
9:35 AM 32.0 °F 28.7 °F 23.0 °F 69% 30.07 in 10.0 mi South 3.5 mph - N/A   Clear
9:55 AM 33.8 °F 28.6 °F 23.0 °F 65% 30.08 in 10.0 mi South 5.8 mph - N/A   Clear
10:15 AM 35.6 °F 29.9 °F 23.0 °F 60% 30.08 in 10.0 mi SSW 6.9 mph - N/A   Clear
10:35 AM 37.4 °F 32.8 °F 21.2 °F 52% 30.07 in 10.0 mi SW 5.8 mph - N/A   Clear
10:55 AM 39.2 °F 35.9 °F 21.2 °F 49% 30.09 in 10.0 mi WNW 4.6 mph - N/A   Clear
11:15 AM 42.8 °F 40.1 °F 24.8 °F 49% 30.09 in 10.0 mi WNW 4.6 mph - N/A   Clear
11:35 AM 48.2 °F - 23.0 °F 37% 30.10 in 10.0 mi NW 10.4 mph - N/A   Clear
11:55 AM 50.0 °F - 21.2 °F 32% 30.09 in 10.0 mi NW 6.9 mph - N/A   Clear
12:15 PM 51.8 °F - 19.4 °F 28% 30.09 in 10.0 mi WNW 8.1 mph - N/A   Clear
12:35 PM 55.4 °F - 19.4 °F 25% 30.08 in 10.0 mi WNW 5.8 mph - N/A   Clear
12:55 PM 57.2 °F - 17.6 °F 21% 30.07 in 10.0 mi NW 10.4 mph - N/A   Clear
1:15 PM 59.0 °F - 17.6 °F 20% 30.07 in 10.0 mi NW 9.2 mph - N/A   Clear
1:35 PM 60.8 °F - 14.0 °F 16% 30.07 in 10.0 mi NNW 11.5 mph - N/A   Clear
1:55 PM 59.0 °F - 21.2 °F 23% 30.07 in 10.0 mi NNE 19.6 mph 26.5 mph N/A   Clear
2:15 PM 59.0 °F - 19.4 °F 22% 30.07 in 10.0 mi North 18.4 mph 23.0 mph N/A   Clear
2:35 PM 57.2 °F - 19.4 °F 23% 30.08 in 10.0 mi NNE 21.9 mph 25.3 mph N/A   Clear
2:55 PM 55.4 °F - 21.2 °F 26% 30.09 in 10.0 mi NNE 25.3 mph - N/A   Clear
3:15 PM 53.6 °F - 21.2 °F 28% 30.11 in 10.0 mi NNE 26.5 mph - N/A   Clear
3:35 PM 53.6 °F - 21.2 °F 28% 30.11 in 10.0 mi NE 25.3 mph - N/A   Clear
3:55 PM 51.8 °F - 21.2 °F 30% 30.16 in 10.0 mi NE 24.2 mph - N/A   Clear
4:15 PM 50.0 °F - 23.0 °F 35% 30.17 in 10.0 mi ENE 19.6 mph 25.3 mph N/A   Clear
4:35 PM 48.2 °F - 23.0 °F 37% 30.19 in 10.0 mi NE 20.7 mph 26.5 mph N/A   Clear
4:55 PM 46.4 °F 38.1 °F 23.0 °F 40% 30.20 in 10.0 mi NE 24.2 mph 28.8 mph N/A   Clear
5:15 PM 42.8 °F 34.0 °F 23.0 °F 46% 30.24 in 10.0 mi ENE 20.7 mph 26.5 mph N/A   Clear
5:35 PM 42.8 °F 34.3 °F 23.0 °F 46% 30.25 in 10.0 mi NE 19.6 mph - N/A   Clear
5:55 PM 41.0 °F 33.1 °F 24.8 °F 53% 30.27 in 10.0 mi NE 15.0 mph - N/A   Clear
6:15 PM 39.2 °F 30.8 °F 24.8 °F 56% 30.28 in 10.0 mi NE 15.0 mph - N/A   Clear
6:35 PM 35.6 °F 26.6 °F 24.8 °F 65% 30.30 in 10.0 mi NE 13.8 mph 19.6 mph N/A   Clear
6:55 PM 35.6 °F 25.9 °F 23.0 °F 60% 30.31 in 10.0 mi NE 16.1 mph - N/A   Clear
7:15 PM 33.8 °F 23.5 °F 23.0 °F 65% 30.33 in 10.0 mi NE 16.1 mph - N/A   Clear
7:35 PM 33.8 °F 25.3 °F 21.2 °F 60% 30.34 in 10.0 mi NE 11.5 mph - N/A   Clear
8:15 PM 32.0 °F 22.1 °F 21.2 °F 64% 30.36 in 10.0 mi NE 13.8 mph - N/A   Clear
8:35 PM 30.2 °F 17.8 °F 17.6 °F 60% 30.36 in 10.0 mi NE 19.6 mph 25.3 mph N/A   Clear
8:55 PM 30.2 °F 19.3 °F 17.6 °F 60% 30.36 in 10.0 mi NE 15.0 mph 20.7 mph N/A   Clear
9:15 PM 28.4 °F 16.6 °F 17.6 °F 64% 30.37 in 10.0 mi NE 16.1 mph - N/A   Clear
9:35 PM 28.4 °F 15.8 °F 17.6 °F 64% 30.36 in 10.0 mi NE 18.4 mph - N/A   Clear
9:55 PM 28.4 °F 16.2 °F 17.6 °F 64% 30.35 in 10.0 mi NE 17.3 mph 25.3 mph N/A   Clear
10:15 PM 28.4 °F 16.6 °F 17.6 °F 64% 30.36 in 10.0 mi NE 16.1 mph - N/A   Clear
10:35 PM 26.6 °F 14.7 °F 17.6 °F 69% 30.37 in 10.0 mi ENE 15.0 mph - N/A   Clear
10:55 PM 26.6 °F 15.7 °F 15.8 °F 64% 30.36 in 10.0 mi ENE 12.7 mph - N/A   Clear
11:15 PM 26.6 °F 15.7 °F 14.0 °F 59% 30.36 in 10.0 mi ENE 12.7 mph - N/A   Clear
11:35 PM 26.6 °F 14.7 °F 14.0 °F 59% 30.36 in 10.0 mi NE 15.0 mph 19.6 mph N/A   Clear
11:55 PM 26.6 °F 16.2 °F 14.0 °F 59% 30.36 in 10.0 mi ENE 11.5 mph - N/A   Clear